EST,Max TemperatureF,Mean TemperatureF,Min TemperatureF,Max Dew PointF,MeanDew PointF,Min DewpointF,Max Humidity, Mean Humidity, Min Humidity, Max Sea Level PressureIn, Mean Sea Level PressureIn, Min Sea Level PressureIn, Max VisibilityMiles, Mean VisibilityMiles, Min VisibilityMiles, Max Wind SpeedMPH, Mean Wind SpeedMPH, Max Gust SpeedMPH,PrecipitationIn, CloudCover, Events, WindDirDegrees
2012-11-1,76,69,62,66,63,59,93,74,64,30.06,30.00,29.96,10,10,10,12,5,16,0.00,5,,259
2012-11-2,77,67,56,62,58,53,100,85,46,30.10,30.04,30.02,10,5,0,14,4,17,0.00,2,Fog,360
2012-11-3,79,67,55,66,61,53,93,82,62,30.14,30.09,30.05,10,8,0,14,4,17,0.00,0,Fog,283
2012-11-4,79,70,61,66,63,60,100,85,54,30.12,30.07,30.01,10,5,0,10,5,13,0.00,1,Fog,318
2012-11-5,77,71,65,67,63,58,93,77,57,30.01,29.97,29.93,10,10,7,10,3,13,0.00,1,,306
2012-11-6,75,68,61,67,61,52,93,82,58,29.95,29.89,29.84,10,9,2,16,5,20,T,4,Rain,313
2012-11-7,70,66,61,56,51,43,78,63,47,30.00,29.93,29.87,10,10,10,21,9,28,0.00,4,,343
2012-11-8,68,59,50,47,41,37,71,55,32,30.18,30.10,30.01,10,10,10,21,7,28,0.00,1,,16
2012-11-9,75,61,46,47,44,41,86,61,31,30.25,30.20,30.15,10,10,10,14,6,18,0.00,0,,58
2012-11-10,78,66,53,54,50,47,83,61,39,30.30,30.24,30.19,10,10,10,16,8,22,0.00,2,,68
2012-11-11,83,70,57,60,57,53,87,69,42,30.27,30.22,30.18,10,10,10,18,8,23,T,1,,74
2012-11-12,84,73,62,67,63,59,93,76,46,30.22,30.18,30.13,10,10,10,16,7,20,T,5,,86
2012-11-13,83,75,66,67,64,59,93,76,49,30.17,30.12,30.08,10,10,10,12,5,15,0.00,2,,24
2012-11-14,80,72,63,66,64,62,100,82,58,30.17,30.12,30.07,10,10,10,14,6,17,0.00,2,,39
2012-11-15,74,69,63,64,63,59,100,86,68,30.14,30.10,30.06,10,8,2,10,6,16,0.00,6,,31
2012-11-16,68,64,60,61,57,55,90,82,68,30.17,30.12,30.08,10,10,8,13,7,15,0.00,6,,37
2012-11-17,80,70,59,62,59,55,90,79,56,30.14,30.10,30.05,10,10,8,16,9,22,0.00,4,,36
2012-11-18,76,67,57,61,58,54,90,79,53,30.17,30.13,30.09,10,10,10,12,9,17,0.00,4,,43
2012-11-19,72,61,50,55,53,50,100,80,53,30.17,30.12,30.06,10,9,2,16,6,22,0.00,1,,26
2012-11-20,72,65,58,58,56,52,86,75,61,30.09,30.05,29.98,10,10,9,14,7,17,0.00,4,,352
2012-11-21,73,63,53,57,54,49,100,80,41,30.09,30.04,30.00,10,7,0,16,6,22,0.00,1,Fog,354
2012-11-22,75,62,49,54,43,34,100,58,25,30.18,30.12,30.08,10,10,8,17,7,24,0.00,0,,16
2012-11-23,72,60,47,49,40,35,83,55,27,30.22,30.15,30.11,10,10,10,17,6,22,0.00,0,,15
2012-11-24,74,62,49,59,52,47,100,79,57,30.12,30.08,30.03,10,10,7,17,5,23,0.00,0,,318
2012-11-25,70,57,43,47,39,32,93,58,25,30.17,30.12,30.09,10,10,10,10,5,17,0.00,0,,6
2012-11-26,75,60,44,59,51,39,90,72,53,30.21,30.15,30.12,10,10,9,10,5,13,0.00,0,,63
2012-11-27,80,68,55,66,62,55,100,84,54,30.17,30.13,30.10,10,9,7,16,6,20,0.00,2,,172
2012-11-28,77,67,57,65,61,54,100,89,54,30.25,30.16,30.12,10,5,0,16,7,21,0.00,3,Fog,10
2012-11-29,80,67,54,57,55,52,93,73,43,30.26,30.22,30.17,10,10,7,15,10,25,0.00,2,,57
2012-11-30,80,69,58,57,55,54,84,67,43,30.24,30.19,30.14,10,10,10,17,8,22,0.00,3,,66